Voltar ao catálogo

CZ-6A DEB

AtivoSSO
NORAD 54552·DEBRIS·🇨🇳 China

Lançado Nov 11, 2022 de Taiyuan Satellite Launch Center

Loading…

Próximas Passagens (próximas 24 horas)

TLE

AtualizadoSource: Space-Track

Época: Sep 13, 2026, 22:19 UTC

1 54552U 22151LC  26256.93024292  .00000036  00000-0  43404-4 0  9992
2 54552  98.8425 261.9002 0034868  73.9794 286.5213 14.11826180197520

Acompanhe CZ-6A DEB em tempo real com AllMySat

Download on the App Store